Orbital Elements at Epoch 2459200.5 (2020-Dec-17.0) TDB
Reference: JPL 24 (heliocentric ecliptic J2000)
Element | Value | Uncertainty (1-sigma) | Units |
e | .135020221789874 | 3.9466e-08 | |
a | 2.189129570861255 | 7.4182e-09 | au |
q | 1.893552810676797 | 8.6692e-08 | au |
i | 3.212238906182783 | 3.4258e-06 | deg |
node | 107.6505781829062 | 8.452e-05 | deg |
peri | 249.3470773254298 | 8.5884e-05 | deg |
M | 264.9154920083242 | 1.6837e-05 | deg |
tp | 2459512.973283420426 (2021-Oct-25.47328342) | 5.5644e-05 | TDB |
period | 1183.056887050424 3.24 | 6.0134e-06 1.646e-08 | d yr |
n | .3042964408056026 | 1.5467e-09 | deg/d |
Q | 2.484706331045713 | 8.4198e-09 | au |
|
| | Orbit Determination Parameters
Additional Information
|